Year,Month,Day,Hour,Minute,Value (Times are PST for insolation in W/m^2)
2007,12,09,00,00,0.00
2007,12,09,00,01,0.00
2007,12,09,00,02,0.00
2007,12,09,00,03,0.00
2007,12,09,00,04,0.00
2007,12,09,00,05,0.00
2007,12,09,00,06,0.00
2007,12,09,00,07,0.00
2007,12,09,00,08,0.00
2007,12,09,00,09,0.00
2007,12,09,00,10,0.00
2007,12,09,00,11,0.00
2007,12,09,00,12,0.00
2007,12,09,00,13,0.00
2007,12,09,00,14,0.00
2007,12,09,00,15,0.00
2007,12,09,00,16,0.00
2007,12,09,00,17,0.00
2007,12,09,00,18,0.00
2007,12,09,00,19,0.00
2007,12,09,00,20,0.00
2007,12,09,00,21,0.00
2007,12,09,00,22,0.00
2007,12,09,00,23,0.00
2007,12,09,00,24,0.00
2007,12,09,00,25,0.00
2007,12,09,00,26,0.00
2007,12,09,00,27,0.00
2007,12,09,00,28,0.00
2007,12,09,00,29,0.00
2007,12,09,00,30,0.00
2007,12,09,00,31,0.00
2007,12,09,00,32,0.00
2007,12,09,00,33,0.00
2007,12,09,00,34,0.00
2007,12,09,00,35,0.00
2007,12,09,00,36,0.00
2007,12,09,00,37,0.00
2007,12,09,00,38,0.00
2007,12,09,00,39,0.00
2007,12,09,00,40,0.00
2007,12,09,00,41,0.00
2007,12,09,00,42,0.00
2007,12,09,00,43,0.00
2007,12,09,00,44,0.00
2007,12,09,00,45,0.00
2007,12,09,00,46,0.00
2007,12,09,00,47,0.00
2007,12,09,00,48,0.00
2007,12,09,00,49,0.00
2007,12,09,00,50,0.00
2007,12,09,00,51,0.00
2007,12,09,00,52,0.00
2007,12,09,00,53,0.00
2007,12,09,00,54,0.00
2007,12,09,00,55,0.00
2007,12,09,00,56,0.00
2007,12,09,00,57,0.00
2007,12,09,00,58,0.00
2007,12,09,00,59,0.00
2007,12,09,01,00,0.00
2007,12,09,01,01,0.00
2007,12,09,01,02,0.00
2007,12,09,01,03,0.00
2007,12,09,01,04,0.00
2007,12,09,01,05,0.00
2007,12,09,01,06,0.00
2007,12,09,01,07,0.00
2007,12,09,01,08,0.00
2007,12,09,01,09,0.00
2007,12,09,01,10,0.00
2007,12,09,01,11,0.00
2007,12,09,01,12,0.00
2007,12,09,01,13,0.00
2007,12,09,01,14,0.00
2007,12,09,01,15,0.00
2007,12,09,01,16,0.00
2007,12,09,01,17,0.00
2007,12,09,01,18,0.00
2007,12,09,01,19,0.00
2007,12,09,01,20,0.00
2007,12,09,01,21,0.00
2007,12,09,01,22,0.00
2007,12,09,01,23,0.00
2007,12,09,01,24,0.00
2007,12,09,01,25,0.00
2007,12,09,01,26,0.00
2007,12,09,01,27,0.00
2007,12,09,01,28,0.00
2007,12,09,01,29,0.00
2007,12,09,01,30,0.00
2007,12,09,01,31,0.00
2007,12,09,01,32,0.00
2007,12,09,01,33,0.00
2007,12,09,01,34,0.00
2007,12,09,01,35,0.00
2007,12,09,01,36,0.00
2007,12,09,01,37,0.00
2007,12,09,01,38,0.00
2007,12,09,01,39,0.00
2007,12,09,01,40,0.00
2007,12,09,01,41,0.00
2007,12,09,01,42,0.00
2007,12,09,01,43,0.00
2007,12,09,01,44,0.00
2007,12,09,01,45,0.00
2007,12,09,01,46,0.00
2007,12,09,01,47,0.00
2007,12,09,01,48,0.00
2007,12,09,01,49,0.00
2007,12,09,01,50,0.00
2007,12,09,01,51,0.00
2007,12,09,01,52,0.00
2007,12,09,01,53,0.00
2007,12,09,01,54,0.00
2007,12,09,01,55,0.00
2007,12,09,01,56,0.00
2007,12,09,01,57,0.00
2007,12,09,01,58,0.00
2007,12,09,01,59,0.00
2007,12,09,02,00,0.00
2007,12,09,02,01,0.00
2007,12,09,02,02,0.00
2007,12,09,02,03,0.00
2007,12,09,02,04,0.00
2007,12,09,02,05,0.00
2007,12,09,02,06,0.00
2007,12,09,02,07,0.00
2007,12,09,02,08,0.00
2007,12,09,02,09,0.00
2007,12,09,02,10,0.00
2007,12,09,02,11,0.00
2007,12,09,02,12,0.00
2007,12,09,02,13,0.00
2007,12,09,02,14,0.00
2007,12,09,02,15,0.00
2007,12,09,02,16,0.00
2007,12,09,02,17,0.00
2007,12,09,02,18,0.00
2007,12,09,02,19,0.00
2007,12,09,02,20,0.00
2007,12,09,02,21,0.00
2007,12,09,02,22,0.00
2007,12,09,02,23,0.00
2007,12,09,02,24,0.00
2007,12,09,02,25,0.00
2007,12,09,02,26,0.00
2007,12,09,02,27,0.00
2007,12,09,02,28,0.00
2007,12,09,02,29,0.00
2007,12,09,02,30,0.00
2007,12,09,02,31,0.00
2007,12,09,02,32,0.00
2007,12,09,02,33,0.00
2007,12,09,02,34,0.00
2007,12,09,02,35,0.00
2007,12,09,02,36,0.00
2007,12,09,02,37,0.00
2007,12,09,02,38,0.00
2007,12,09,02,39,0.00
2007,12,09,02,40,0.00
2007,12,09,02,41,0.00
2007,12,09,02,42,0.00
2007,12,09,02,43,0.00
2007,12,09,02,44,0.00
2007,12,09,02,45,0.00
2007,12,09,02,46,0.00
2007,12,09,02,47,0.00
2007,12,09,02,48,0.00
2007,12,09,02,49,0.00
2007,12,09,02,50,0.00
2007,12,09,02,51,0.00
2007,12,09,02,52,0.00
2007,12,09,02,53,0.00
2007,12,09,02,54,0.00
2007,12,09,02,55,0.00
2007,12,09,02,56,0.00
2007,12,09,02,57,0.00
2007,12,09,02,58,0.00
2007,12,09,02,59,0.00
2007,12,09,03,00,0.00
2007,12,09,03,01,0.00
2007,12,09,03,02,0.00
2007,12,09,03,03,0.00
2007,12,09,03,04,0.00
2007,12,09,03,05,0.00
2007,12,09,03,06,0.00
2007,12,09,03,07,0.00
2007,12,09,03,08,0.00
2007,12,09,03,09,0.00
2007,12,09,03,10,0.00
2007,12,09,03,11,0.00
2007,12,09,03,12,0.00
2007,12,09,03,13,0.00
2007,12,09,03,14,0.00
2007,12,09,03,15,0.00
2007,12,09,03,16,0.00
2007,12,09,03,17,0.00
2007,12,09,03,18,0.00
2007,12,09,03,19,0.00
2007,12,09,03,20,0.00
2007,12,09,03,21,0.00
2007,12,09,03,22,0.00
2007,12,09,03,23,0.00
2007,12,09,03,24,0.00
2007,12,09,03,25,0.00
2007,12,09,03,26,0.00
2007,12,09,03,27,0.00
2007,12,09,03,28,0.00
2007,12,09,03,29,0.00
2007,12,09,03,30,0.00
2007,12,09,03,31,0.00
2007,12,09,03,32,0.00
2007,12,09,03,33,0.00
2007,12,09,03,34,0.00
2007,12,09,03,35,0.00
2007,12,09,03,36,0.00
2007,12,09,03,37,0.00
2007,12,09,03,38,0.00
2007,12,09,03,39,0.00
2007,12,09,03,40,0.00
2007,12,09,03,41,0.00
2007,12,09,03,42,0.00
2007,12,09,03,43,0.00
2007,12,09,03,44,0.00
2007,12,09,03,45,0.00
2007,12,09,03,46,0.00
2007,12,09,03,47,0.00
2007,12,09,03,48,0.00
2007,12,09,03,49,0.00
2007,12,09,03,50,0.00
2007,12,09,03,51,0.00
2007,12,09,03,52,0.00
2007,12,09,03,53,0.00
2007,12,09,03,54,0.00
2007,12,09,03,55,0.00
2007,12,09,03,56,0.00
2007,12,09,03,57,0.00
2007,12,09,03,58,0.00
2007,12,09,03,59,0.00
2007,12,09,04,00,0.00
2007,12,09,04,01,0.00
2007,12,09,04,02,0.00
2007,12,09,04,03,0.00
2007,12,09,04,04,0.00
2007,12,09,04,05,0.00
2007,12,09,04,06,0.00
2007,12,09,04,07,0.00
2007,12,09,04,08,0.00
2007,12,09,04,09,0.00
2007,12,09,04,10,0.00
2007,12,09,04,11,0.00
2007,12,09,04,12,0.00
2007,12,09,04,13,0.00
2007,12,09,04,14,0.00
2007,12,09,04,15,0.00
2007,12,09,04,16,0.00
2007,12,09,04,17,0.00
2007,12,09,04,18,0.00
2007,12,09,04,19,0.00
2007,12,09,04,20,0.00
2007,12,09,04,21,0.00
2007,12,09,04,22,0.00
2007,12,09,04,23,0.00
2007,12,09,04,24,0.00
2007,12,09,04,25,0.00
2007,12,09,04,26,0.00
2007,12,09,04,27,0.00
2007,12,09,04,28,0.00
2007,12,09,04,29,0.00
2007,12,09,04,30,0.00
2007,12,09,04,31,0.00
2007,12,09,04,32,0.00
2007,12,09,04,33,0.00
2007,12,09,04,34,0.00
2007,12,09,04,35,0.00
2007,12,09,04,36,0.00
2007,12,09,04,37,0.00
2007,12,09,04,38,0.00
2007,12,09,04,39,0.00
2007,12,09,04,40,0.00
2007,12,09,04,41,0.00
2007,12,09,04,42,0.00
2007,12,09,04,43,0.00
2007,12,09,04,44,0.00
2007,12,09,04,45,0.00
2007,12,09,04,46,0.00
2007,12,09,04,47,0.00
2007,12,09,04,48,0.00
2007,12,09,04,49,0.00
2007,12,09,04,50,0.00
2007,12,09,04,51,0.00
2007,12,09,04,52,0.00
2007,12,09,04,53,0.00
2007,12,09,04,54,0.00
2007,12,09,04,55,0.00
2007,12,09,04,56,0.00
2007,12,09,04,57,0.00
2007,12,09,04,58,0.00
2007,12,09,04,59,0.00
2007,12,09,05,00,0.00
2007,12,09,05,01,0.00
2007,12,09,05,02,0.00
2007,12,09,05,03,0.00
2007,12,09,05,04,0.00
2007,12,09,05,05,0.00
2007,12,09,05,06,0.00
2007,12,09,05,07,0.00
2007,12,09,05,08,0.00
2007,12,09,05,09,0.00
2007,12,09,05,10,0.00
2007,12,09,05,11,0.00
2007,12,09,05,12,0.00
2007,12,09,05,13,0.00
2007,12,09,05,14,0.00
2007,12,09,05,15,0.00
2007,12,09,05,16,0.00
2007,12,09,05,17,0.00
2007,12,09,05,18,0.00
2007,12,09,05,19,0.00
2007,12,09,05,20,0.00
2007,12,09,05,21,0.00
2007,12,09,05,22,0.00
2007,12,09,05,23,0.00
2007,12,09,05,24,0.00
2007,12,09,05,25,0.00
2007,12,09,05,26,0.00
2007,12,09,05,27,0.00
2007,12,09,05,28,0.00
2007,12,09,05,29,0.00
2007,12,09,05,30,0.00
2007,12,09,05,31,0.00
2007,12,09,05,32,0.00
2007,12,09,05,33,0.00
2007,12,09,05,34,0.00
2007,12,09,05,35,0.00
2007,12,09,05,36,0.00
2007,12,09,05,37,0.00
2007,12,09,05,38,0.00
2007,12,09,05,39,0.00
2007,12,09,05,40,0.00
2007,12,09,05,41,0.00
2007,12,09,05,42,0.00
2007,12,09,05,43,0.00
2007,12,09,05,44,0.00
2007,12,09,05,45,0.00
2007,12,09,05,46,0.00
2007,12,09,05,47,0.00
2007,12,09,05,48,0.00
2007,12,09,05,49,0.00
2007,12,09,05,50,0.00
2007,12,09,05,51,0.00
2007,12,09,05,52,0.00
2007,12,09,05,53,0.00
2007,12,09,05,54,0.00
2007,12,09,05,55,0.00
2007,12,09,05,56,0.00
2007,12,09,05,57,0.00
2007,12,09,05,58,0.00
2007,12,09,05,59,0.00
2007,12,09,06,00,0.00
2007,12,09,06,01,0.00
2007,12,09,06,02,0.00
2007,12,09,06,03,0.00
2007,12,09,06,04,0.00
2007,12,09,06,05,0.00
2007,12,09,06,06,0.00
2007,12,09,06,07,0.00
2007,12,09,06,08,0.00
2007,12,09,06,09,0.00
2007,12,09,06,10,0.00
2007,12,09,06,11,0.00
2007,12,09,06,12,0.00
2007,12,09,06,13,0.00
2007,12,09,06,14,0.00
2007,12,09,06,15,0.00
2007,12,09,06,16,0.00
2007,12,09,06,17,0.00
2007,12,09,06,18,0.00
2007,12,09,06,19,0.00
2007,12,09,06,20,0.00
2007,12,09,06,21,0.00
2007,12,09,06,22,0.00
2007,12,09,06,23,0.00
2007,12,09,06,24,0.00
2007,12,09,06,25,0.00
2007,12,09,06,26,0.00
2007,12,09,06,27,0.00
2007,12,09,06,28,0.00
2007,12,09,06,29,0.00
2007,12,09,06,30,0.00
2007,12,09,06,31,0.00
2007,12,09,06,32,0.00
2007,12,09,06,33,0.00
2007,12,09,06,34,0.00
2007,12,09,06,35,0.00
2007,12,09,06,36,0.00
2007,12,09,06,37,0.00
2007,12,09,06,38,0.00
2007,12,09,06,39,0.00
2007,12,09,06,40,0.00
2007,12,09,06,41,0.00
2007,12,09,06,42,0.00
2007,12,09,06,43,0.00
2007,12,09,06,44,0.00
2007,12,09,06,45,0.00
2007,12,09,06,46,0.00
2007,12,09,06,47,0.00
2007,12,09,06,48,0.00
2007,12,09,06,49,0.00
2007,12,09,06,50,0.00
2007,12,09,06,51,0.00
2007,12,09,06,52,0.00
2007,12,09,06,53,0.00
2007,12,09,06,54,0.00
2007,12,09,06,55,0.00
2007,12,09,06,56,0.00
2007,12,09,06,57,0.00
2007,12,09,06,58,0.00
2007,12,09,06,59,0.00
2007,12,09,07,00,0.00
2007,12,09,07,01,0.00
2007,12,09,07,02,0.00
2007,12,09,07,03,0.00
2007,12,09,07,04,0.00
2007,12,09,07,05,0.00
2007,12,09,07,06,0.00
2007,12,09,07,07,0.00
2007,12,09,07,08,0.00
2007,12,09,07,09,0.00
2007,12,09,07,10,0.00
2007,12,09,07,11,0.00
2007,12,09,07,12,0.00
2007,12,09,07,13,0.00
2007,12,09,07,14,0.00
2007,12,09,07,15,0.00
2007,12,09,07,16,0.00
2007,12,09,07,17,0.00
2007,12,09,07,18,0.00
2007,12,09,07,19,0.00
2007,12,09,07,20,0.00
2007,12,09,07,21,0.00
2007,12,09,07,22,0.00
2007,12,09,07,23,0.00
2007,12,09,07,24,0.00
2007,12,09,07,25,0.00
2007,12,09,07,26,0.00
2007,12,09,07,27,0.00
2007,12,09,07,28,0.00
2007,12,09,07,29,0.00
2007,12,09,07,30,0.00
2007,12,09,07,31,0.00
2007,12,09,07,32,0.00
2007,12,09,07,33,0.00
2007,12,09,07,34,0.00
2007,12,09,07,35,0.00
2007,12,09,07,36,0.00
2007,12,09,07,37,0.00
2007,12,09,07,38,0.00
2007,12,09,07,39,0.00
2007,12,09,07,40,0.00
2007,12,09,07,41,0.00
2007,12,09,07,42,0.00
2007,12,09,07,43,0.00
2007,12,09,07,44,0.00
2007,12,09,07,45,0.00
2007,12,09,07,46,0.00
2007,12,09,07,47,0.00
2007,12,09,07,48,0.00
2007,12,09,07,49,0.00
2007,12,09,07,50,0.00
2007,12,09,07,51,0.00
2007,12,09,07,52,0.00
2007,12,09,07,53,0.00
2007,12,09,07,54,0.00
2007,12,09,07,55,0.00
2007,12,09,07,56,0.00
2007,12,09,07,57,0.00
2007,12,09,07,58,0.00
2007,12,09,07,59,0.00
2007,12,09,08,00,0.00
2007,12,09,08,01,0.00
2007,12,09,08,02,0.00
2007,12,09,08,03,0.00
2007,12,09,08,04,0.00
2007,12,09,08,05,0.00
2007,12,09,08,06,0.00
2007,12,09,08,07,0.00
2007,12,09,08,08,0.00
2007,12,09,08,09,0.00
2007,12,09,08,10,0.00
2007,12,09,08,11,0.00
2007,12,09,08,12,0.00
2007,12,09,08,13,0.00
2007,12,09,08,14,0.00
2007,12,09,08,15,0.00
2007,12,09,08,16,0.00
2007,12,09,08,17,0.00
2007,12,09,08,18,0.00
2007,12,09,08,19,0.00
2007,12,09,08,20,0.00
2007,12,09,08,21,0.00
2007,12,09,08,22,0.00
2007,12,09,08,23,0.00
2007,12,09,08,24,0.00
2007,12,09,08,25,0.00
2007,12,09,08,26,0.00
2007,12,09,08,27,0.00
2007,12,09,08,28,0.00
2007,12,09,08,29,0.00
2007,12,09,08,30,0.00
2007,12,09,08,31,0.00
2007,12,09,08,32,0.00
2007,12,09,08,33,0.60
2007,12,09,08,34,5.00
2007,12,09,08,35,5.00
2007,12,09,08,36,5.90
2007,12,09,08,37,8.00
2007,12,09,08,38,10.40
2007,12,09,08,39,11.80
2007,12,09,08,40,13.80
2007,12,09,08,41,16.00
2007,12,09,08,42,16.00
2007,12,09,08,43,16.00
2007,12,09,08,44,16.00
2007,12,09,08,45,16.00
2007,12,09,08,46,16.00
2007,12,09,08,47,16.00
2007,12,09,08,48,16.00
2007,12,09,08,49,14.30
2007,12,09,08,50,11.90
2007,12,09,08,51,11.00
2007,12,09,08,52,10.40
2007,12,09,08,53,9.00
2007,12,09,08,54,8.00
2007,12,09,08,55,7.00
2007,12,09,08,56,7.00
2007,12,09,08,57,7.00
2007,12,09,08,58,7.00
2007,12,09,08,59,7.00
2007,12,09,09,00,7.50
2007,12,09,09,01,9.00
2007,12,09,09,02,10.00
2007,12,09,09,03,11.60
2007,12,09,09,04,12.00
2007,12,09,09,05,13.60
2007,12,09,09,06,17.60
2007,12,09,09,07,19.10
2007,12,09,09,08,21.40
2007,12,09,09,09,23.00
2007,12,09,09,10,23.80
2007,12,09,09,11,25.00
2007,12,09,09,12,25.00
2007,12,09,09,13,25.70
2007,12,09,09,14,27.50
2007,12,09,09,15,31.40
2007,12,09,09,16,32.10
2007,12,09,09,17,33.00
2007,12,09,09,18,33.00
2007,12,09,09,19,33.00
2007,12,09,09,20,33.00
2007,12,09,09,21,33.00
2007,12,09,09,22,32.20
2007,12,09,09,23,30.20
2007,12,09,09,24,29.90
2007,12,09,09,25,28.20
2007,12,09,09,26,29.50
2007,12,09,09,27,27.30
2007,12,09,09,28,24.80
2007,12,09,09,29,21.90
2007,12,09,09,30,19.70
2007,12,09,09,31,19.00
2007,12,09,09,32,19.00
2007,12,09,09,33,19.10
2007,12,09,09,34,21.30
2007,12,09,09,35,23.90
2007,12,09,09,36,27.80
2007,12,09,09,37,31.70
2007,12,09,09,38,35.70
2007,12,09,09,39,37.00
2007,12,09,09,40,39.70
2007,12,09,09,41,39.80
2007,12,09,09,42,36.30
2007,12,09,09,43,32.20
2007,12,09,09,44,30.00
2007,12,09,09,45,30.90
2007,12,09,09,46,32.00
2007,12,09,09,47,32.00
2007,12,09,09,48,30.30
2007,12,09,09,49,28.10
2007,12,09,09,50,25.70
2007,12,09,09,51,22.70
2007,12,09,09,52,21.00
2007,12,09,09,53,21.80
2007,12,09,09,54,23.00
2007,12,09,09,55,23.00
2007,12,09,09,56,24.30
2007,12,09,09,57,25.00
2007,12,09,09,58,25.00
2007,12,09,09,59,25.70
2007,12,09,10,00,32.50
2007,12,09,10,01,35.00
2007,12,09,10,02,35.90
2007,12,09,10,03,35.00
2007,12,09,10,04,32.40
2007,12,09,10,05,32.00
2007,12,09,10,06,32.00
2007,12,09,10,07,32.00
2007,12,09,10,08,34.20
2007,12,09,10,09,40.00
2007,12,09,10,10,40.80
2007,12,09,10,11,42.90
2007,12,09,10,12,44.00
2007,12,09,10,13,46.20
2007,12,09,10,14,46.20
2007,12,09,10,15,46.90
2007,12,09,10,16,50.90
2007,12,09,10,17,52.60
2007,12,09,10,18,51.00
2007,12,09,10,19,50.10
2007,12,09,10,20,47.60
2007,12,09,10,21,50.70
2007,12,09,10,22,55.20
2007,12,09,10,23,57.50
2007,12,09,10,24,54.10
2007,12,09,10,25,56.00
2007,12,09,10,26,55.50
2007,12,09,10,27,52.30
2007,12,09,10,28,45.50
2007,12,09,10,29,40.70
2007,12,09,10,30,37.90
2007,12,09,10,31,37.00
2007,12,09,10,32,33.40
2007,12,09,10,33,29.70
2007,12,09,10,34,24.40
2007,12,09,10,35,21.50
2007,12,09,10,36,23.80
2007,12,09,10,37,25.00
2007,12,09,10,38,25.00
2007,12,09,10,39,25.00
2007,12,09,10,40,25.00
2007,12,09,10,41,19.90
2007,12,09,10,42,19.40
2007,12,09,10,43,23.00
2007,12,09,10,44,22.40
2007,12,09,10,45,21.00
2007,12,09,10,46,22.10
2007,12,09,10,47,24.90
2007,12,09,10,48,27.60
2007,12,09,10,49,29.80
2007,12,09,10,50,31.80
2007,12,09,10,51,28.30
2007,12,09,10,52,30.00
2007,12,09,10,53,30.80
2007,12,09,10,54,31.20
2007,12,09,10,55,28.90
2007,12,09,10,56,28.00
2007,12,09,10,57,33.20
2007,12,09,10,58,38.80
2007,12,09,10,59,35.10
2007,12,09,11,00,32.80
2007,12,09,11,01,31.40
2007,12,09,11,02,32.20
2007,12,09,11,03,37.10
2007,12,09,11,04,36.50
2007,12,09,11,05,35.00
2007,12,09,11,06,38.60
2007,12,09,11,07,39.90
2007,12,09,11,08,40.00
2007,12,09,11,09,39.80
2007,12,09,11,10,37.70
2007,12,09,11,11,34.10
2007,12,09,11,12,34.10
2007,12,09,11,13,35.00
2007,12,09,11,14,41.80
2007,12,09,11,15,52.50
2007,12,09,11,16,58.30
2007,12,09,11,17,63.30
2007,12,09,11,18,65.50
2007,12,09,11,19,65.70
2007,12,09,11,20,61.40
2007,12,09,11,21,61.70
2007,12,09,11,22,62.30
2007,12,09,11,23,56.90
2007,12,09,11,24,56.00
2007,12,09,11,25,60.60
2007,12,09,11,26,66.60
2007,12,09,11,27,73.20
2007,12,09,11,28,78.00
2007,12,09,11,29,81.00
2007,12,09,11,30,78.50
2007,12,09,11,31,73.10
2007,12,09,11,32,67.60
2007,12,09,11,33,62.50
2007,12,09,11,34,62.90
2007,12,09,11,35,60.90
2007,12,09,11,36,57.30
2007,12,09,11,37,57.90
2007,12,09,11,38,56.30
2007,12,09,11,39,53.30
2007,12,09,11,40,51.30
2007,12,09,11,41,51.00
2007,12,09,11,42,47.60
2007,12,09,11,43,53.20
2007,12,09,11,44,54.00
2007,12,09,11,45,55.50
2007,12,09,11,46,62.50
2007,12,09,11,47,68.30
2007,12,09,11,48,69.00
2007,12,09,11,49,69.00
2007,12,09,11,50,74.40
2007,12,09,11,51,82.10
2007,12,09,11,52,88.40
2007,12,09,11,53,90.30
2007,12,09,11,54,92.00
2007,12,09,11,55,95.80
2007,12,09,11,56,100.60
2007,12,09,11,57,102.00
2007,12,09,11,58,103.90
2007,12,09,11,59,104.00
2007,12,09,12,00,103.70
2007,12,09,12,01,102.00
2007,12,09,12,02,101.30
2007,12,09,12,03,100.00
2007,12,09,12,04,101.10
2007,12,09,12,05,102.00
2007,12,09,12,06,100.30
2007,12,09,12,07,100.00
2007,12,09,12,08,96.80
2007,12,09,12,09,95.50
2007,12,09,12,10,97.30
2007,12,09,12,11,98.00
2007,12,09,12,12,93.90
2007,12,09,12,13,91.00
2007,12,09,12,14,91.00
2007,12,09,12,15,92.80
2007,12,09,12,16,97.00
2007,12,09,12,17,97.20
2007,12,09,12,18,98.00
2007,12,09,12,19,97.60
2007,12,09,12,20,94.00
2007,12,09,12,21,90.40
2007,12,09,12,22,90.70
2007,12,09,12,23,94.30
2007,12,09,12,24,96.70
2007,12,09,12,25,100.20
2007,12,09,12,26,104.00
2007,12,09,12,27,103.40
2007,12,09,12,28,101.20
2007,12,09,12,29,100.00
2007,12,09,12,30,100.00
2007,12,09,12,31,100.00
2007,12,09,12,32,100.00
2007,12,09,12,33,100.00
2007,12,09,12,34,96.80
2007,12,09,12,35,94.50
2007,12,09,12,36,93.00
2007,12,09,12,37,92.10
2007,12,09,12,38,91.00
2007,12,09,12,39,90.30
2007,12,09,12,40,88.60
2007,12,09,12,41,84.20
2007,12,09,12,42,80.90
2007,12,09,12,43,79.30
2007,12,09,12,44,81.60
2007,12,09,12,45,83.00
2007,12,09,12,46,80.90
2007,12,09,12,47,75.90
2007,12,09,12,48,74.00
2007,12,09,12,49,70.60
2007,12,09,12,50,69.10
2007,12,09,12,51,67.20
2007,12,09,12,52,69.00
2007,12,09,12,53,70.00
2007,12,09,12,54,73.80
2007,12,09,12,55,76.60
2007,12,09,12,56,77.00
2007,12,09,12,57,77.00
2007,12,09,12,58,69.80
2007,12,09,12,59,69.40
2007,12,09,13,00,77.60
2007,12,09,13,01,81.60
2007,12,09,13,02,83.00
2007,12,09,13,03,82.00
2007,12,09,13,04,81.00
2007,12,09,13,05,82.40
2007,12,09,13,06,83.00
2007,12,09,13,07,83.00
2007,12,09,13,08,80.90
2007,12,09,13,09,78.60
2007,12,09,13,10,77.00
2007,12,09,13,11,77.00
2007,12,09,13,12,76.50
2007,12,09,13,13,77.80
2007,12,09,13,14,79.00
2007,12,09,13,15,83.00
2007,12,09,13,16,81.30
2007,12,09,13,17,76.10
2007,12,09,13,18,77.00
2007,12,09,13,19,77.70
2007,12,09,13,20,79.90
2007,12,09,13,21,82.20
2007,12,09,13,22,83.70
2007,12,09,13,23,84.00
2007,12,09,13,24,84.00
2007,12,09,13,25,83.30
2007,12,09,13,26,89.00
2007,12,09,13,27,97.20
2007,12,09,13,28,103.20
2007,12,09,13,29,103.50
2007,12,09,13,30,102.00
2007,12,09,13,31,94.20
2007,12,09,13,32,88.50
2007,12,09,13,33,84.20
2007,12,09,13,34,82.80
2007,12,09,13,35,79.90
2007,12,09,13,36,76.70
2007,12,09,13,37,76.00
2007,12,09,13,38,76.00
2007,12,09,13,39,74.60
2007,12,09,13,40,70.10
2007,12,09,13,41,65.40
2007,12,09,13,42,62.90
2007,12,09,13,43,62.00
2007,12,09,13,44,62.00
2007,12,09,13,45,62.40
2007,12,09,13,46,63.00
2007,12,09,13,47,64.00
2007,12,09,13,48,66.50
2007,12,09,13,49,69.50
2007,12,09,13,50,71.90
2007,12,09,13,51,76.10
2007,12,09,13,52,81.30
2007,12,09,13,53,83.30
2007,12,09,13,54,82.70
2007,12,09,13,55,77.10
2007,12,09,13,56,74.00
2007,12,09,13,57,74.00
2007,12,09,13,58,76.70
2007,12,09,13,59,76.90
2007,12,09,14,00,76.00
2007,12,09,14,01,75.60
2007,12,09,14,02,73.40
2007,12,09,14,03,68.10
2007,12,09,14,04,60.20
2007,12,09,14,05,56.70
2007,12,09,14,06,53.90
2007,12,09,14,07,51.10
2007,12,09,14,08,49.00
2007,12,09,14,09,49.00
2007,12,09,14,10,48.40
2007,12,09,14,11,47.00
2007,12,09,14,12,47.00
2007,12,09,14,13,46.40
2007,12,09,14,14,43.20
2007,12,09,14,15,43.80
2007,12,09,14,16,45.80
2007,12,09,14,17,41.70
2007,12,09,14,18,38.60
2007,12,09,14,19,37.00
2007,12,09,14,20,37.90
2007,12,09,14,21,37.90
2007,12,09,14,22,38.40
2007,12,09,14,23,39.80
2007,12,09,14,24,40.00
2007,12,09,14,25,42.10
2007,12,09,14,26,44.00
2007,12,09,14,27,43.40
2007,12,09,14,28,42.00
2007,12,09,14,29,42.00
2007,12,09,14,30,44.40
2007,12,09,14,31,46.00
2007,12,09,14,32,46.00
2007,12,09,14,33,42.20
2007,12,09,14,34,41.90
2007,12,09,14,35,40.00
2007,12,09,14,36,39.70
2007,12,09,14,37,38.30
2007,12,09,14,38,37.00
2007,12,09,14,39,35.70
2007,12,09,14,40,33.60
2007,12,09,14,41,32.20
2007,12,09,14,42,32.90
2007,12,09,14,43,38.10
2007,12,09,14,44,44.70
2007,12,09,14,45,47.00
2007,12,09,14,46,47.90
2007,12,09,14,47,47.80
2007,12,09,14,48,45.00
2007,12,09,14,49,44.00
2007,12,09,14,50,42.10
2007,12,09,14,51,42.00
2007,12,09,14,52,41.70
2007,12,09,14,53,39.80
2007,12,09,14,54,38.30
2007,12,09,14,55,35.00
2007,12,09,14,56,32.30
2007,12,09,14,57,30.70
2007,12,09,14,58,30.00
2007,12,09,14,59,28.10
2007,12,09,15,00,30.00
2007,12,09,15,01,30.00
2007,12,09,15,02,30.00
2007,12,09,15,03,28.20
2007,12,09,15,04,25.40
2007,12,09,15,05,23.70
2007,12,09,15,06,23.00
2007,12,09,15,07,23.00
2007,12,09,15,08,25.00
2007,12,09,15,09,25.20
2007,12,09,15,10,26.00
2007,12,09,15,11,26.00
2007,12,09,15,12,27.00
2007,12,09,15,13,28.00
2007,12,09,15,14,29.30
2007,12,09,15,15,31.50
2007,12,09,15,16,30.10
2007,12,09,15,17,29.80
2007,12,09,15,18,27.60
2007,12,09,15,19,26.00
2007,12,09,15,20,25.50
2007,12,09,15,21,22.80
2007,12,09,15,22,21.00
2007,12,09,15,23,19.60
2007,12,09,15,24,18.10
2007,12,09,15,25,16.00
2007,12,09,15,26,15.70
2007,12,09,15,27,14.00
2007,12,09,15,28,14.00
2007,12,09,15,29,14.00
2007,12,09,15,30,14.00
2007,12,09,15,31,14.00
2007,12,09,15,32,12.50
2007,12,09,15,33,12.00
2007,12,09,15,34,12.00
2007,12,09,15,35,12.00
2007,12,09,15,36,11.70
2007,12,09,15,37,11.00
2007,12,09,15,38,11.00
2007,12,09,15,39,11.00
2007,12,09,15,40,11.00
2007,12,09,15,41,11.00
2007,12,09,15,42,11.00
2007,12,09,15,43,11.00
2007,12,09,15,44,11.00
2007,12,09,15,45,11.00
2007,12,09,15,46,11.00
2007,12,09,15,47,10.00
2007,12,09,15,48,9.00
2007,12,09,15,49,9.00
2007,12,09,15,50,9.00
2007,12,09,15,51,7.00
2007,12,09,15,52,7.00
2007,12,09,15,53,7.00
2007,12,09,15,54,7.00
2007,12,09,15,55,6.10
2007,12,09,15,56,5.00
2007,12,09,15,57,5.00
2007,12,09,15,58,5.00
2007,12,09,15,59,5.00
2007,12,09,16,00,0.00
2007,12,09,16,01,0.00
2007,12,09,16,02,0.00
2007,12,09,16,03,0.00
2007,12,09,16,04,0.00
2007,12,09,16,05,0.00
2007,12,09,16,06,0.00
2007,12,09,16,07,0.00
2007,12,09,16,08,0.00
2007,12,09,16,09,0.00
2007,12,09,16,10,0.00
2007,12,09,16,11,0.00
2007,12,09,16,12,0.00
2007,12,09,16,13,0.00
2007,12,09,16,14,0.00
2007,12,09,16,15,0.00
2007,12,09,16,16,0.00
2007,12,09,16,17,0.00
2007,12,09,16,18,0.00
2007,12,09,16,19,0.00
2007,12,09,16,20,0.00
2007,12,09,16,21,0.00
2007,12,09,16,22,0.00
2007,12,09,16,23,0.00
2007,12,09,16,24,0.00
2007,12,09,16,25,0.00
2007,12,09,16,26,0.00
2007,12,09,16,27,0.00
2007,12,09,16,28,0.00
2007,12,09,16,29,0.00
2007,12,09,16,30,0.00
2007,12,09,16,31,0.00
2007,12,09,16,32,0.00
2007,12,09,16,33,0.00
2007,12,09,16,34,0.00
2007,12,09,16,35,0.00
2007,12,09,16,36,0.00
2007,12,09,16,37,0.00
2007,12,09,16,38,0.00
2007,12,09,16,39,0.00
2007,12,09,16,40,0.00
2007,12,09,16,41,0.00
2007,12,09,16,42,0.00
2007,12,09,16,43,0.00
2007,12,09,16,44,0.00
2007,12,09,16,45,0.00
2007,12,09,16,46,0.00
2007,12,09,16,47,0.00
2007,12,09,16,48,0.00
2007,12,09,16,49,0.00
2007,12,09,16,50,0.00
2007,12,09,16,51,0.00
2007,12,09,16,52,0.00
2007,12,09,16,53,0.00
2007,12,09,16,54,0.00
2007,12,09,16,55,0.00
2007,12,09,16,56,0.00
2007,12,09,16,57,0.00
2007,12,09,16,58,0.00
2007,12,09,16,59,0.00
2007,12,09,17,00,0.00
2007,12,09,17,01,0.00
2007,12,09,17,02,0.00
2007,12,09,17,03,0.00
2007,12,09,17,04,0.00
2007,12,09,17,05,0.00
2007,12,09,17,06,0.00
2007,12,09,17,07,0.00
2007,12,09,17,08,0.00
2007,12,09,17,09,0.00
2007,12,09,17,10,0.00
2007,12,09,17,11,0.00
2007,12,09,17,12,0.00
2007,12,09,17,13,0.00
2007,12,09,17,14,0.00
2007,12,09,17,15,0.00
2007,12,09,17,16,0.00
2007,12,09,17,17,0.00
2007,12,09,17,18,0.00
2007,12,09,17,19,0.00
2007,12,09,17,20,0.00
2007,12,09,17,21,0.00
2007,12,09,17,22,0.00
2007,12,09,17,23,0.00
2007,12,09,17,24,0.00
2007,12,09,17,25,0.00
2007,12,09,17,26,0.00
2007,12,09,17,27,0.00
2007,12,09,17,28,0.00
2007,12,09,17,29,0.00
2007,12,09,17,30,0.00
2007,12,09,17,31,0.00
2007,12,09,17,32,0.00
2007,12,09,17,33,0.00
2007,12,09,17,34,0.00
2007,12,09,17,35,0.00
2007,12,09,17,36,0.00
2007,12,09,17,37,0.00
2007,12,09,17,38,0.00
2007,12,09,17,39,0.00
2007,12,09,17,40,0.00
2007,12,09,17,41,0.00
2007,12,09,17,42,0.00
2007,12,09,17,43,0.00
2007,12,09,17,44,0.00
2007,12,09,17,45,0.00
2007,12,09,17,46,0.00